Time,TemperatureF,DewpointF,PressureIn,WindDirection,WindDirectionDegrees,WindSpeedMPH,WindSpeedGustMPH,Humidity,HourlyPrecipIn,Conditions,Clouds,dailyrainin,SoftwareType,DateUTC
2013-05-30 00:00:00,69.3,60.3,29.94,South,180,7.0,24.0,73,0.00,,,-99.99,WeatherLink 5.6,2013-05-30 04:00:00,
2013-05-30 00:30:00,68.1,59.9,29.95,South,180,5.0,19.0,75,0.00,,,-99.99,WeatherLink 5.6,2013-05-30 04:30:00,
2013-05-30 01:00:00,67.2,59.4,29.96,South,180,3.0,12.0,76,0.00,,,-99.99,WeatherLink 5.6,2013-05-30 05:00:00,
2013-05-30 01:30:00,67.1,58.9,29.96,South,180,5.0,15.0,75,0.00,,,-99.99,WeatherLink 5.6,2013-05-30 05:30:00,
2013-05-30 02:00:00,66.0,58.9,29.96,South,180,4.0,12.0,78,0.00,,,-99.99,WeatherLink 5.6,2013-05-30 06:00:00,
2013-05-30 02:30:00,65.5,58.5,29.96,South,180,4.0,11.0,78,0.00,,,-99.99,WeatherLink 5.6,2013-05-30 06:30:00,
2013-05-30 03:00:00,65.3,58.3,29.96,South,180,5.0,14.0,78,0.00,,,-99.99,WeatherLink 5.6,2013-05-30 07:00:00,
2013-05-30 03:30:00,64.7,58.0,29.96,South,180,4.0,14.0,79,0.00,,,-99.99,WeatherLink 5.6,2013-05-30 07:30:00,
2013-05-30 04:00:00,64.3,57.6,29.96,South,180,4.0,14.0,79,0.00,,,-99.99,WeatherLink 5.6,2013-05-30 08:00:00,
2013-05-30 04:30:00,64.4,57.4,29.97,South,180,4.0,12.0,78,0.00,,,-99.99,WeatherLink 5.6,2013-05-30 08:30:00,
2013-05-30 05:00:00,64.2,57.5,29.98,South,180,5.0,12.0,79,0.00,,,-99.99,WeatherLink 5.6,2013-05-30 09:00:00,
2013-05-30 05:30:00,63.6,57.0,29.99,South,180,3.0,9.0,79,0.00,,,-99.99,WeatherLink 5.6,2013-05-30 09:30:00,
2013-05-30 06:00:00,63.7,57.1,29.99,South,180,3.0,10.0,79,0.00,,,-99.99,WeatherLink 5.6,2013-05-30 10:00:00,
2013-05-30 06:30:00,64.2,57.2,30.00,South,180,5.0,15.0,78,0.00,,,-99.99,WeatherLink 5.6,2013-05-30 10:30:00,
2013-05-30 07:00:00,64.5,57.5,30.01,South,180,2.0,7.0,78,0.00,,,-99.99,WeatherLink 5.6,2013-05-30 11:00:00,
2013-05-30 07:30:00,65.4,58.0,30.01,South,180,2.0,10.0,77,0.00,,,-99.99,WeatherLink 5.6,2013-05-30 11:30:00,
2013-05-30 08:00:00,66.6,59.2,30.01,SSE,157,2.0,9.0,77,0.00,,,-99.99,WeatherLink 5.6,2013-05-30 12:00:00,
2013-05-30 08:30:00,68.1,59.5,30.03,South,180,3.0,11.0,74,0.00,,,-99.99,WeatherLink 5.6,2013-05-30 12:30:00,
2013-05-30 09:00:00,69.2,60.9,30.03,South,180,3.0,10.0,75,0.00,,,-99.99,WeatherLink 5.6,2013-05-30 13:00:00,
2013-05-30 09:30:00,69.0,61.5,30.03,South,180,3.0,12.0,77,0.00,,,-99.99,WeatherLink 5.6,2013-05-30 13:30:00,
2013-05-30 10:00:00,70.1,62.2,30.04,South,180,3.0,12.0,76,0.00,,,-99.99,WeatherLink 5.6,2013-05-30 14:00:00,
2013-05-30 10:30:00,71.1,61.6,30.04,SSW,202,4.0,12.0,72,0.00,,,-99.99,WeatherLink 5.6,2013-05-30 14:30:00,
2013-05-30 11:00:00,71.8,61.5,30.03,South,180,4.0,12.0,70,0.00,,,-99.99,WeatherLink 5.6,2013-05-30 15:00:00,
2013-05-30 11:30:00,73.2,62.4,30.03,South,180,2.0,8.0,69,0.00,,,-99.99,WeatherLink 5.6,2013-05-30 15:30:00,
2013-05-30 12:00:00,73.6,64.4,30.02,South,180,2.0,11.0,73,0.00,,,-99.99,WeatherLink 5.6,2013-05-30 16:00:00,
2013-05-30 12:30:00,74.5,62.4,30.01,SW,225,1.0,6.0,66,0.00,,,-99.99,WeatherLink 5.6,2013-05-30 16:30:00,
2013-05-30 13:00:00,75.5,64.6,30.01,SSE,157,1.0,8.0,69,0.00,,,-99.99,WeatherLink 5.6,2013-05-30 17:00:00,
2013-05-30 13:30:00,74.9,61.9,30.00,SSE,157,1.0,10.0,64,0.00,,,-99.99,WeatherLink 5.6,2013-05-30 17:30:00,
2013-05-30 14:00:00,76.4,59.5,29.99,SE,135,2.0,11.0,56,0.00,,,-99.99,WeatherLink 5.6,2013-05-30 18:00:00,
2013-05-30 14:30:00,77.3,62.8,29.98,South,180,3.0,11.0,61,0.00,,,-99.99,WeatherLink 5.6,2013-05-30 18:30:00,
2013-05-30 15:00:00,78.2,60.2,29.97,SE,135,2.0,13.0,54,0.00,,,-99.99,WeatherLink 5.6,2013-05-30 19:00:00,
2013-05-30 15:30:00,78.0,60.5,29.97,SE,135,4.0,14.0,55,0.00,,,-99.99,WeatherLink 5.6,2013-05-30 19:30:00,
2013-05-30 16:00:00,78.7,59.0,29.96,South,180,3.0,12.0,51,0.00,,,-99.99,WeatherLink 5.6,2013-05-30 20:00:00,
2013-05-30 16:30:00,79.4,60.2,29.94,South,180,3.0,11.0,52,0.00,,,-99.99,WeatherLink 5.6,2013-05-30 20:30:00,
2013-05-30 17:00:00,79.4,60.8,29.94,South,180,3.0,12.0,53,0.00,,,-99.99,WeatherLink 5.6,2013-05-30 21:00:00,
2013-05-30 17:30:00,78.7,60.7,29.93,South,180,3.0,11.0,54,0.00,,,-99.99,WeatherLink 5.6,2013-05-30 21:30:00,
2013-05-30 18:00:00,78.3,60.8,29.92,South,180,2.0,13.0,55,0.00,,,-99.99,WeatherLink 5.6,2013-05-30 22:00:00,
2013-05-30 18:30:00,77.4,61.5,29.91,South,180,1.0,7.0,58,0.00,,,-99.99,WeatherLink 5.6,2013-05-30 22:30:00,
2013-05-30 19:00:00,75.8,61.4,29.91,South,180,1.0,7.0,61,0.00,,,-99.99,WeatherLink 5.6,2013-05-30 23:00:00,
2013-05-30 19:30:00,75.1,61.2,29.91,South,180,2.0,7.0,62,0.00,,,-99.99,WeatherLink 5.6,2013-05-30 23:30:00,
2013-05-30 20:00:00,74.6,60.3,29.91,SSW,202,1.0,5.0,61,0.00,,,-99.99,WeatherLink 5.6,2013-05-31 00:00:00,
2013-05-30 20:30:00,73.8,60.0,29.91,South,180,2.0,11.0,62,0.00,,,-99.99,WeatherLink 5.6,2013-05-31 00:30:00,
2013-05-30 21:00:00,72.6,61.8,29.92,South,180,5.0,13.0,69,0.00,,,-99.99,WeatherLink 5.6,2013-05-31 01:00:00,
2013-05-30 21:30:00,71.9,60.8,29.92,South,180,6.0,17.0,68,0.00,,,-99.99,WeatherLink 5.6,2013-05-31 01:30:00,
2013-05-30 22:00:00,70.8,60.5,29.94,South,180,4.0,12.0,70,0.00,,,-99.99,WeatherLink 5.6,2013-05-31 02:00:00,
2013-05-30 22:30:00,70.4,59.7,29.95,South,180,5.0,19.0,69,0.00,,,-99.99,WeatherLink 5.6,2013-05-31 02:30:00,
2013-05-30 23:00:00,69.4,59.2,29.96,South,180,5.0,16.0,70,0.00,,,-99.99,WeatherLink 5.6,2013-05-31 03:00:00,
2013-05-30 23:30:00,68.4,59.0,29.96,South,180,5.0,14.0,72,0.00,,,-99.99,WeatherLink 5.6,2013-05-31 03:30:00,